Location: Unspecified
(0.0000°N, 0.0000°E)
Time: 20:54:04
(UTC+00:00)

STARLINK-30235 - Visible Passes

Search period start: 10 November 2025 00:00
Search period end: 20 November 2025 00:00
Orbit: 558 x 560 km, 43.0° (Epoch: 08 November)

Date Brightness Start Highest point End Pass type
(mag) Time Alt. Az. Time Alt. Az. Time Alt. Az.
10 Nov 4.1 18:47:25 10° NW 18:51:35 62° SW 18:55:45 10° SE visible
11 Nov 6.7 05:07:19 10° SSE 05:09:33 14° SE 05:11:46 10° ESE visible
11 Nov 5.3 18:44:43 10° WNW 18:48:33 34° SW 18:52:25 10° SSE visible
12 Nov 6.2 05:03:11 10° S 05:06:34 23° SE 05:09:57 10° E visible
12 Nov 6.4 18:42:23 10° W 18:45:32 20° SW 18:48:43 10° S visible
13 Nov 5.1 04:59:35 10° SSW 05:03:33 39° SE 05:07:30 10° ENE visible
13 Nov 6.8 18:40:51 10° WSW 18:42:34 12° SW 18:44:16 10° SSW visible
14 Nov 3.9 04:56:18 10° SW 05:00:31 72° SE 05:04:42 10° NE visible
15 Nov 6.8 03:16:08 10° SSE 03:16:53 10° SE 03:17:38 10° SE visible
15 Nov 3.6 04:53:18 10° SW 04:57:29 63° NW 05:01:38 10° NE visible
16 Nov 6.5 03:15:07 16° ESE 03:15:07 16° ESE 03:16:47 10° E visible
16 Nov 4.3 04:51:06 13° WSW 04:54:26 35° NW 04:58:17 10° NNE visible
17 Nov 4.9 04:50:36 19° WNW 04:51:25 20° NW 04:54:35 10° N visible
18 Nov 5.8 04:49:41 11° NNW 04:49:41 11° NNW 04:50:09 10° NNW visible
